#timestamp,LO_Frequency,Hit,StdDev 
1695153615.5,286047002.6,N
1695153635.3,286047002.5,N
1695153655.1,286047002.5,N
1695153675.9,286047002.6,N
1695153695.7,286047001.5,N
1695153715.6,286047002.0,N
1695153735.4,286047001.6,N
1695153755.2,286047001.6,N
1695153775.1,286047002.1,N
1695153776.0,286047002.1,N
1695153795.8,286047001.4,N
1695153815.7,286047002.7,Y
1695153835.5,286046998.9,P
1695153855.3,286046998.8,N
1695153875.2,286046999.4,N
1695153895.9,286046997.1,N
1695153915.7,286046996.5,N
1695153935.6,286046999.1,N
1695153955.4,286046997.1,N
1695153975.2,286046997.0,N
1695153995.1,286046996.6,N
1695153996.0,286046996.6,N
1695154015.8,286046997.3,N
1695154035.7,286046997.5,N
1695154055.5,286046995.6,N
1695154075.3,286046995.3,Y
1695154095.2,286046996.9,P
1695154115.0,286046997.0,P
1695154115.9,286046997.0,P
1695154135.8,286046996.7,Y
1695154155.6,286046999.8,P
1695154175.4,286047000.4,N
1695154195.3,286046999.9,N
1695154215.1,286047000.5,N
1695154235.8,286047000.0,N
1695154255.7,286047000.3,N
1695154275.5,286046998.6,N
1695154295.4,286046999.4,N
1695154315.2,286046996.8,Y
1695154335.0,286046996.8,P
1695154335.9,286046996.8,N
1695154355.8,286046997.3,N
1695154375.6,286046995.0,Y
1695154395.5,286046996.5,P
1695154415.3,286046999.4,N
1695154435.1,286046998.9,N
1695154455.9,286047002.7,N
1695154475.7,286047000.6,N
1695154495.5,286047000.7,N
1695154515.4,286047001.2,N
1695154535.2,286046999.3,N
1695154555.0,286046998.9,N
1695154555.9,286046998.9,N
1695154575.8,286046998.2,N
1695154595.6,286047000.8,N
1695154615.5,286046999.3,N
1695154635.3,286046997.2,N
1695154655.1,286046997.2,N
1695154675.9,286046995.4,N
1695154695.7,286046997.5,N
1695154715.5,286046999.2,N
1695154735.4,286046996.6,N
1695154755.2,286046996.6,N
1695154775.1,286046996.9,N
1695154776.0,286046996.9,N
1695154795.8,286046996.6,N
1695154815.6,286046999.1,N
1695154835.5,286046999.6,N
1695154855.3,286046996.5,N
1695154875.1,286046999.5,N
1695154895.9,286047002.3,N
1695154915.7,286047001.4,N
1695154935.6,286047002.5,N
1695154955.4,286047000.6,N
1695154975.2,286047001.0,N
1695154995.1,286047001.2,N
1695154996.0,286047001.2,N
1695155015.8,286047001.1,N
1695155035.7,286046999.1,N
1695155055.5,286046996.7,N
1695155075.3,286046997.1,N
1695155095.2,286046999.5,N
1695155115.0,286046996.8,N
1695155115.9,286046996.8,N
1695155135.8,286046997.8,N
1695155155.6,286046996.7,N
1695155175.4,286046996.9,N
1695155195.3,286046996.7,N
1695155215.1,286046997.0,N
1695155235.9,286046997.3,N
1695155255.7,286046999.5,N
1695155275.5,286046999.6,N
1695155295.4,286046997.6,N
1695155315.2,286046993.7,Y
1695155335.0,286046995.8,P
1695155336.0,286046995.8,N
1695155355.8,286046995.0,P
1695155375.6,286046996.0,N
1695155395.5,286046995.6,Y
1695155415.3,286047000.2,P
1695155435.2,286047001.0,N
1695155455.9,286047000.5,N
1695155475.7,286047001.1,N
1695155495.6,286046998.6,N
1695155515.4,286046998.2,N
1695155535.2,286046998.3,N
1695155555.1,286046998.9,N
1695155556.0,286046998.9,N
1695155575.8,286046999.0,N
1695155595.7,286046998.8,N
1695155615.5,286046999.0,N
1695155635.3,286046998.9,N
1695155655.2,286046998.7,N
1695155675.0,286046998.9,N
1695155675.9,286046998.9,N
1695155695.8,286046999.3,N
1695155715.6,286046998.4,N
1695155735.4,286046998.3,N
1695155755.3,286046999.0,N
1695155775.1,286046999.4,N
1695155795.9,286046998.9,N
1695155815.7,286046999.4,N
1695155835.5,286046999.1,N
1695155855.4,286046999.4,N
1695155875.2,286046998.3,N
1695155895.1,286046998.7,N
1695155896.0,286046998.7,N
1695155915.8,286046998.5,N
1695155935.6,286046999.4,N
1695155955.5,286046999.4,N
1695155975.3,286046997.3,Y
1695155995.2,286046999.6,P
1695156015.9,286046998.4,P
1695156035.7,286046998.4,P
1695156055.6,286046996.8,Y
1695156075.4,286046999.4,P
1695156095.3,286046998.6,P
1695156115.1,286046998.1,P
1695156116.0,286046998.1,Y
1695156135.8,286047000.1,P
1695156155.7,286047002.1,P
1695156175.5,286047000.2,N
1695156195.4,286046998.5,N
1695156215.2,286047001.1,N
1695156235.0,286046998.2,N
1695156235.9,286046998.2,N
1695156255.8,286046998.2,N
1695156275.6,286047000.2,N
1695156295.5,286047000.4,N
1695156315.3,286047001.2,N
1695156335.1,286047000.6,N
1695156355.9,286046998.2,N
1695156375.7,286047000.8,N
1695156395.6,286046998.6,N
1695156415.4,286046998.5,N
1695156435.2,286046999.3,N
1695156455.1,286047000.5,N
1695156456.0,286047000.5,N
1695156475.8,286047000.5,N
1695156495.6,286047000.9,N
1695156515.5,286047000.8,N
1695156535.3,286047000.9,N
1695156555.2,286047000.9,N
1695156575.9,286047002.2,N
1695156595.7,286047002.8,N
1695156615.6,286047000.0,N
1695156635.4,286047000.7,N
1695156655.2,286047000.8,N
1695156675.1,286046998.7,N
1695156676.0,286046998.7,N
1695156695.8,286046998.3,N
1695156715.7,286047000.4,N
1695156735.5,286047002.3,N
1695156755.3,286047000.1,N
1695156775.2,286047000.8,N
1695156795.0,286046998.3,N
1695156795.9,286046998.3,N
1695156815.8,286046999.0,N
1695156835.6,286047001.0,N
1695156855.4,286046998.5,N
1695156875.3,286047001.2,N
1695156895.1,286047000.8,N
1695156915.8,286047001.1,N
1695156935.7,286047000.7,N
1695156955.5,286046998.3,N
1695156975.4,286046998.9,N
1695156995.2,286046998.7,N
1695157015.0,286046996.9,N
1695157015.9,286046996.9,N
1695157035.8,286046996.6,N
1695157055.6,286046999.5,N
1695157075.4,286046996.8,N
1695157095.3,286046999.1,N
1695157115.1,286046999.3,N
1695157135.9,286046996.9,N
1695157155.7,286046999.3,N
1695157175.5,286046999.5,N
1695157195.4,286046999.4,N
